EW3259 Weather Reports


Display with metric or nautical units.
time (UTC)temp
F
wind
direction
speed
MPH
gust
MPH
rain 1hr
in
rain 24hr
in
rain mn
in
humidity
%
barometer
mb
20210922112210 59 264 2.0 8.0 0.08 1.66 0.10 94 1014.3
20210922111310 59 232 5.0 8.0 0.08 1.66 0.10 94 1013.8
20210922110410 60 309 3.0 7.0 0.08 1.66 0.10 94 1013.6
20210922105511 60 265 4.0 7.0 0.06 1.63 0.07 93 1014.1
20210922104611 60 245 3.0 6.0 0.00 1.57 0.01 93 1013.8
20210922103710 60 233 2.0 9.0 0.00 1.57 0.01 92 1013.9
20210922102810 60 269 5.0 9.0 0.00 1.57 0.01 92 1013.5
20210922101910 60 276 3.0 12.0 0.00 1.57 0.01 92 1013.4
20210922101010 60 314 5.0 8.0 0.00 1.57 0.01 92 1013.5
20210922100110 61 262 4.0 12.0 0.00 1.57 0.01 90 1014.0
20210922095210 61 277 8.0 13.0 0.00 1.57 0.01 90 1013.6
20210922094310 62 299 2.0 13.0 0.00 1.57 0.01 89 1013.5
20210922093410 62 286 4.0 15.0 0.00 1.57 0.01 90 1013.5
20210922092510 63 292 5.0 13.0 0.00 1.57 0.01 91 1013.1
20210922091610 63 258 3.0 8.0 0.00 1.57 0.01 92 1012.8
20210922090710 64 242 5.0 11.0 0.01 1.57 0.01 93 1012.7
20210922085810 64 255 5.0 11.0 0.01 1.57 0.01 93 1012.8
20210922084910 64 285 5.0 8.0 0.01 1.58 0.01 93 1012.6
20210922084010 65 271 3.0 13.0 0.01 1.78 0.01 94 1012.5
20210922083110 65 267 4.0 11.0 0.01 1.78 0.01 95 1012.6
20210922082210 66 274 5.0 10.0 0.01 1.78 0.01 95 1012.5
20210922081310 66 275 6.0 10.0 0.00 1.75 0.00 95 1012.5
20210922080410 66 249 4.0 10.0 0.00 1.75 0.00 94 1012.3
20210922075511 67 235 4.0 8.0 0.00 1.75 0.00 94 1012.4
20210922074610 67 261 3.0 11.0 0.00 1.75 0.00 94 1012.5
20210922073710 68 282 3.0 8.0 0.00 1.75 0.00 94 1012.6
20210922072810 68 276 5.0 7.0 0.00 1.75 0.00 93 1012.7
20210922071910 69 279 4.0 11.0 0.00 1.75 0.00 94 1012.6
20210922071010 70 278 3.0 15.0 0.00 1.75 0.00 94 1012.7
20210922070110 70 281 5.0 10.0 0.00 1.75 0.00 93 1012.5
20210922065210 71 255 3.0 6.0 0.00 1.75 0.00 93 1012.5
20210922064310 71 243 2.0 6.0 0.00 1.78 0.00 93 1012.6
20210922063410 71 256 1.0 8.0 0.00 1.86 0.00 93 1012.8
20210922062510 71 250 3.0 8.0 0.00 1.86 0.00 93 1012.8
20210922061610 71 261 4.0 8.0 0.00 1.86 0.00 93 1012.7
20210922060710 71 266 3.0 4.0 0.00 1.86 0.00 92 1012.6
20210922055810 72 229 1.0 4.0 0.00 1.86 0.00 91 1012.6
20210922054910 72 261 1.0 8.0 0.00 1.86 0.00 91 1012.7
20210922054010 72 239 3.0 8.0 0.00 1.86 0.00 91 1012.8
20210922053110 72 294 3.0 8.0 0.00 1.86 0.00 91 1012.9
20210922052210 72 247 3.0 6.0 0.00 1.86 0.00 92 1012.8
20210922051310 72 247 2.0 7.0 0.00 1.86 0.00 93 1012.8
20210922050410 73 258 4.0 8.0 0.00 1.86 0.00 94 1012.9
20210922045510 73 260 5.0 8.0 0.00 1.86 1.86 94 1012.9
20210922044610 73 258 1.0 4.0 0.00 1.86 1.86 96 1012.9
20210922043710 73 246 1.0 4.0 0.00 1.86 1.86 96 1012.9
20210922042810 74 230 2.0 3.0 0.00 1.86 1.86 95 1012.9
20210922041910 74 238 1.0 3.0 0.00 1.86 1.86 95 1012.8
20210922041010 73 239 0.0 2.0 0.00 1.86 1.86 95 1013.0
20210922040110 73 155 0.0 1.0 0.00 1.86 1.86 95 1013.1
20210922035210 74 202 0.0 2.0 0.00 1.86 1.86 95 1013.0
20210922034310 74 213 0.0 2.0 0.00 1.86 1.86 95 1013.1
20210922033410 74 221 0.0 2.0 0.00 1.86 1.86 95 1013.2
20210922032510 74 151 0.0 2.0 0.00 1.86 1.86 96 1013.1
20210922031610 74 161 0.0 2.0 0.00 1.86 1.86 96 1013.3
20210922030710 74 240 0.0 3.0 0.00 1.86 1.86 96 1013.5
20210922025810 74 162 0.0 1.0 0.00 1.86 1.86 95 1013.5
20210922024910 74 177 0.0 1.0 0.00 1.86 1.86 95 1013.6
20210922024010 74 199 0.0 2.0 0.00 1.86 1.86 95 1013.6
20210922023110 74 229 0.0 2.0 0.00 1.86 1.86 95 1013.4
20210922022210 74 162 1.0 2.0 0.00 1.86 1.86 95 1013.3
20210922021310 74 83 1.0 2.0 0.00 1.86 1.86 95 1013.0
20210922020410 74 223 0.0 1.0 0.00 1.86 1.86 95 1013.3
20210922015510 74 181 0.0 1.0 0.00 1.86 1.86 95 1013.5
20210922014610 74 0 0.0 0.0 0.00 1.86 1.86 95 1013.5
20210922013710 74 0 0.0 0.0 0.00 1.87 1.86 95 1013.5
20210922012810 74 0 0.0 0.0 0.00 1.88 1.86 94 1013.5
20210922011910 74 0 0.0 0.0 0.00 1.91 1.86 94 1013.2
20210922011010 74 181 0.0 1.0 0.00 1.96 1.86 94 1013.2
20210922010110 74 0 0.0 0.0 0.00 1.98 1.86 94 1013.4
20210922005210 75 106 0.0 1.0 0.00 2.00 1.86 94 1013.3
20210922004310 75 0 0.0 0.0 0.00 2.05 1.86 94 1013.0
20210922003411 75 0 0.0 0.0 0.00 2.06 1.86 93 1013.1
20210922002510 76 0 0.0 0.0 0.00 2.09 1.86 92 1013.3
20210922001610 76 90 0.0 1.0 0.00 2.09 1.86 92 1013.1
20210922000710 76 0 0.0 0.0 0.00 2.09 1.86 91 1013.4
20210921235810 76 0 0.0 0.0 0.00 2.09 1.86 91 1013.4
20210921234910 76 135 0.0 1.0 0.00 2.09 1.86 91 1013.5
20210921234010 77 135 0.0 1.0 0.00 2.10 1.86 91 1013.5
20210921233110 77 146 0.0 1.0 0.00 2.10 1.86 89 1013.5
20210921232210 78 181 0.0 1.0 0.00 2.10 1.86 88 1013.4
20210921231310 79 181 0.0 1.0 0.00 2.10 1.86 86 1013.1
20210921230410 79 258 0.0 2.0 0.00 2.10 1.86 84 1013.1
20210921225510 80 135 0.0 1.0 0.00 2.10 1.86 83 1013.0
20210921224610 80 135 0.0 1.0 0.00 2.10 1.86 82 1012.8
20210921223710 80 135 0.0 1.0 0.00 2.10 1.86 81 1012.8
20210921222810 80 132 0.0 2.0 0.00 2.16 1.86 79 1012.7
20210921221910 81 141 0.0 2.0 0.00 2.16 1.86 79 1012.6
20210921221010 81 135 0.0 1.0 0.00 2.16 1.86 76 1012.4
20210921220110 81 135 0.0 1.0 0.00 2.16 1.86 76 1012.5
20210921215210 81 181 0.0 1.0 0.00 2.16 1.86 76 1012.6
20210921214310 81 173 0.0 2.0 0.00 2.16 1.86 76 1012.7
20210921213410 81 123 0.0 2.0 0.00 2.16 1.86 74 1012.7
20210921212510 81 70 1.0 2.0 0.00 2.16 1.86 73 1012.7
20210921211610 81 85 0.0 2.0 0.00 2.16 1.86 71 1012.6
20210921210710 81 147 0.0 2.0 0.00 2.16 1.86 71 1013.0
20210921205810 83 166 1.0 3.0 0.00 2.16 1.86 70 1012.8
20210921204910 83 231 1.0 3.0 0.00 2.16 1.86 68 1013.1
20210921204010 81 225 2.0 2.0 0.00 2.16 1.86 72 1013.1
20210921203110 81 80 1.0 2.0 0.00 2.17 1.86 76 1013.3
20210921202210 81 64 1.0 2.0 0.00 2.22 1.86 73 1013.2
20210921201310 83 282 1.0 2.0 0.00 2.26 1.86 71 1013.5
20210921200410 83 40 0.0 1.0 0.00 2.41 1.86 68 1013.7
20210921195510 83 92 0.0 2.0 0.00 2.41 1.86 68 1013.8
20210921194610 84 70 0.0 2.0 0.00 2.41 1.86 67 1013.8
20210921193710 85 47 1.0 4.0 0.00 2.41 1.86 64 1013.9
20210921192810 86 120 2.0 4.0 0.00 2.41 1.86 67 1013.8
20210921191910 85 147 3.0 4.0 0.00 2.41 1.86 65 1013.9
20210921191010 85 146 2.0 4.0 0.00 2.41 1.86 66 1013.9
20210921190110 83 93 1.0 4.0 0.00 2.41 1.86 67 1013.9
20210921185210 83 94 3.0 4.0 0.00 2.41 1.86 70 1014.0
20210921184310 83 116 4.0 4.0 0.00 2.41 1.86 69 1014.0
20210921183410 83 115 1.0 4.0 0.00 2.41 1.86 73 1014.1
20210921182510 81 115 3.0 4.0 0.01 2.41 1.86 75 1014.1
20210921181610 81 67 3.0 4.0 0.02 2.41 1.86 77 1014.5
20210921180710 81 57 3.0 4.0 0.05 2.44 1.86 81 1014.6
20210921175810 80 86 2.0 4.0 0.05 2.44 1.86 86 1014.9
20210921174910 78 65 2.0 2.0 0.05 2.44 1.86 89 1014.9
20210921174010 78 101 0.0 2.0 0.05 2.44 1.86 90 1015.0
20210921173110 77 174 0.0 2.0 0.05 2.44 1.86 89 1015.2
20210921172210 77 143 0.0 4.0 0.02 2.42 1.84 88 1015.2
20210921171310 78 186 1.0 3.0 0.00 2.40 1.81 85 1015.4
20210921170410 78 79 0.0 3.0 0.00 2.41 1.81 86 1015.4
20210921165510 78 98 0.0 3.0 0.00 2.47 1.81 90 1015.4
20210921164610 78 92 1.0 3.0 0.00 2.47 1.81 93 1015.7
20210921163710 76 148 1.0 3.0 0.00 2.47 1.81 95 1015.6
20210921162810 76 135 1.0 3.0 0.00 2.50 1.81 95 1015.8
20210921161910 76 150 2.0 3.0 0.01 2.52 1.81 96 1015.7
20210921161010 76 112 2.0 4.0 0.06 2.56 1.81 96 1015.7
20210921160110 75 129 1.0 4.0 0.10 2.72 1.81 97 1015.8
20210921155210 75 120 2.0 3.0 0.13 2.75 1.81 97 1015.7
20210921154310 74 107 1.0 2.0 0.53 2.75 1.81 97 1015.6
20210921153410 74 90 2.0 2.0 0.70 2.75 1.81 97 1015.7
20210921152510 73 109 1.0 2.0 0.79 2.75 1.81 96 1015.9
20210921151610 73 69 0.0 2.0 0.96 2.72 1.79 96 1015.7
20210921150710 72 139 0.0 2.0 1.25 2.68 1.74 96 1015.9
20210921145810 72 119 0.0 4.0 1.20 2.64 1.70 96 1015.7
20210921144910 72 100 0.0 2.0 1.10 2.53 1.60 96 1015.8
20210921144010 72 3 1.0 2.0 0.67 2.10 1.19 96 1015.8
20210921143110 72 177 1.0 3.0 0.58 2.02 1.08 96 1015.6
20210921142210 72 347 2.0 4.0 0.49 1.93 0.99 96 1015.5
20210921141310 72 103 2.0 4.0 0.23 1.66 0.72 96 1015.3
20210921140410 72 100 0.0 2.0 0.00 1.43 0.50 96 1015.3
20210921135510 72 238 0.0 3.0 0.00 1.43 0.50 96 1015.4
20210921134610 72 227 0.0 2.0 0.00 1.43 0.50 96 1015.2
20210921133710 72 117 0.0 2.0 0.00 1.43 0.50 96 1015.3
20210921132810 72 107 0.0 2.0 0.00 1.43 0.50 96 1015.3
20210921131910 72 90 0.0 2.0 0.00 1.43 0.50 96 1015.1
20210921131010 72 133 1.0 2.0 0.00 1.43 0.50 96 1015.1
20210921130110 72 107 0.0 2.0 0.00 1.43 0.50 96 1015.0
20210921125209 72 90 1.0 2.0 0.07 1.43 0.50 96 1014.8
20210921124310 72 144 0.0 2.0 0.17 1.43 0.50 96 1014.6
20210921123409 72 127 0.0 1.0 0.20 1.43 0.50 96 1014.8
20210921122509 72 167 0.0 2.0 0.20 1.43 0.50 96 1014.6
20210921121610 72 181 0.0 2.0 0.20 1.43 0.50 96 1014.7
20210921120710 72 99 0.0 3.0 0.20 1.43 0.50 96 1014.9
20210921115810 72 93 1.0 3.0 0.18 1.42 0.48 95 1014.6
20210921114910 72 81 1.0 3.0 0.08 1.32 0.38 95 1014.6
20210921114009 72 93 0.0 4.0 0.00 1.24 0.30 95 1014.6
20210921113110 71 121 0.0 3.0 0.00 1.24 0.30 96 1014.4